Simultaneous Nadir Overpasses (SNOs) Predictions

Prediction of SNOs between AQUA and NPP Satellite Orbit:

Table of predicted SNOs for the next 14.0 days since TLE Epoch: 11/27/2021
Index Date (AQUA) Time (AQUA) Lat,Lon (AQUA) SZA (AQUA ) Date (NPP) Time (NPP) Lat,Lon (NPP) SZA (NPP ) Distance(km) Time Diff (sec)
1 11/27/2021 13:16:06 75.66,-140.83 117.53 11/27/2021 13:15:38 75.65,-140.89 117.58 1.93 28
2 11/27/2021 14:05:12 -76.69, 30.11 63.56 11/27/2021 14:06:01 -76.68, 30.03 63.59 2.19 49
3 11/30/2021 05:32:25 76.09, -23.64 117.58 11/30/2021 05:32:20 76.09, -23.68 117.59 0.88 5
4 11/30/2021 06:21:32 -77.06, 147.33 63.47 11/30/2021 06:22:44 -77.05, 147.29 63.53 1.09 72
5 12/02/2021 20:59:41 -75.45, -77.30 61.32 12/02/2021 20:58:42 -75.45, -77.28 61.26 0.62 59
6 12/02/2021 21:48:43 76.60, 93.91 117.48 12/02/2021 21:49:01 76.60, 93.96 117.45 1.24 18
7 12/05/2021 13:16:07 -75.57, 38.92 61.03 12/05/2021 13:15:32 -75.56, 38.84 60.98 2.61 35
8 12/05/2021 14:05:08 76.76,-149.65 117.71 12/05/2021 14:05:50 76.75,-149.70 117.69 1.56 42
9 12/08/2021 05:32:21 -76.26, 156.93 61.41 12/08/2021 05:32:09 -76.26, 156.96 61.41 0.93 12
10 12/08/2021 06:21:25 77.27, -31.82 117.49 12/08/2021 06:22:30 77.28, -31.72 117.41 2.59 65
11 12/10/2021 20:59:35 75.54, 102.98 119.67 12/10/2021 20:58:30 75.54, 103.02 119.72 1.22 65



Historial Predications of SNOs between AQUA and NPP
